This is the latest recevied weather packets stored in our database for station/object KC4KQE. If no packets are shown the sender has not sent any weather packets the latest 10 day(s).
| Time | Temp. | Humidity | Pressure | Rain* | Wind** | Luminosity | Snow |
|---|---|---|---|---|---|---|---|
| 1778003056 | 20° C | 59% | 1012.3 hPa | 0 mm | - | 137 W/m² | - |
| 1778002756 | 20° C | 59% | 1012.4 hPa | 0 mm | - | 213 W/m² | - |
| 1778002456 | 20° C | 58% | 1012.3 hPa | 0 mm | - | 316 W/m² | - |
| 1778002156 | 20.56° C | 60% | 1012.3 hPa | 0 mm | - | 373 W/m² | - |
| 1778001856 | 20° C | 60% | 1012.3 hPa | 0 mm | - | 353 W/m² | - |
| 1778001556 | 20° C | 61% | 1012.3 hPa | 0 mm | - | 380 W/m² | - |
| 1778001256 | 20° C | 61% | 1012.3 hPa | 0 mm | - | 336 W/m² | - |
| 1778000956 | 19.44° C | 64% | 1012.4 hPa | 0 mm | - | 302 W/m² | - |
| 1778000656 | 19.44° C | 65% | 1012.3 hPa | 0 mm | - | 271 W/m² | - |
| 1778000356 | 19.44° C | 63% | 1012.2 hPa | 0 mm | - | 318 W/m² | - |
| 1778000056 | 20° C | 64% | 1012.3 hPa | 0 mm | - | 362 W/m² | - |
| 1777999756 | 19.44° C | 65% | 1012.3 hPa | 0 mm | - | 408 W/m² | - |
| 1777999457 | 18.89° C | 67% | 1012.3 hPa | 0 mm | - | 225 W/m² | - |
| 1777999156 | 18.33° C | 65% | 1012.3 hPa | 0 mm | - | 178 W/m² | - |
| 1777998856 | 18.33° C | 67% | 1012.4 hPa | 0 mm | - | 120 W/m² | - |
| 1777998556 | 18.33° C | 67% | 1012.3 hPa | 0 mm | - | 77 W/m² | - |
| 1777998256 | 18.89° C | 67% | 1012.2 hPa | 0 mm | - | 104 W/m² | - |
| 1777997956 | 18.89° C | 67% | 1012.3 hPa | 0 mm | - | 192 W/m² | - |
| 1777997657 | 18.89° C | 67% | 1012.4 hPa | 0 mm | - | 860 W/m² | - |
| 1777997356 | 18.33° C | 69% | 1012.4 hPa | 0 mm | - | 251 W/m² | - |
| 1777997056 | 18.33° C | 71% | 1012.4 hPa | 0 mm | - | 204 W/m² | - |
| 1777996756 | 18.33° C | 73% | 1012.4 hPa | 0 mm | - | 309 W/m² | - |
| 1777996456 | 18.33° C | 72% | 1012.3 hPa | 0 mm | - | 302 W/m² | - |
| 1777996157 | 17.78° C | 74% | 1012.2 hPa | 0 mm | - | 155 W/m² | - |
| 1777995856 | 17.78° C | 74% | 1012.2 hPa | 0 mm | - | 207 W/m² | - |
* Rain latest hour (hover to see other rain measurements)
** Current wind speed in m/s (hover to see current wind gust speed)